Helicity
-5 -5 2 7 11 14 18 23 27 30 34 31 32 35 46 46 88 93 74 108 74 57 78 167 190 155 224 309 318 350 412 272 256 296 362 88 140 144 100 89 59 160 156 172 289
6 6 10 16 21 23 26 36 44 43 42 48 45 23 39 40 47 44 213 252 118 76 162 143 222 198 291 314 308 446 389 271 341 375 260 113 118 118 153 119 110 170 166 138 272
10 6 3 13 32 43 50 71 75 82 91 67 41 28 -58 21 97 138 530 598 589 310 171 157 169 230 250 301 359 378 222 367 328 242 231 84 106 131 148 163 104 146 174 173 217
34 41 47 54 69 64 87 96 91 95 104 95 74 64 26 23 195 154 198 249 295 307 366 168 239 300 341 268 276 334 262 289 253 319 156 98 105 99 124 143 46 106 189 234 194
43 58 75 64 64 59 72 79 79 70 89 93 81 86 79 70 53 123 112 47 156 152 259 344 193 281 336 285 249 240 223 282 217 288 181 94 89 80 118 121 150 131 189 251 226
51 65 83 74 69 62 42 48 49 16 53 74 63 85 50 121 45 21 92 192 69 54 156 178 206 104 261 254 246 332 251 251 195 168 195 112 64 71 92 148 146 147 191 230 242
52 65 86 82 81 65 24 3 5 -30 26 27 34 30 83 71 50 15 13 50 36 60 132 78 31 125 177 173 211 190 307 221 242 160 121 128 22 -4 145 124 108 146 227 258 232
46 60 73 84 78 51 18 -29 33 25 33 51 -20 46 57 -4 15 5 -0 64 -5 -5 35 81 -6 63 118 133 194 204 128 257 230 179 192 210 -59 3 145 125 114 125 198 261 286
53 53 55 73 73 55 9 -13 64 102 68 3 12 58 78 70 141 -24 -8 10 62 24 5 56 -9 -64 -69 184 214 233 275 258 204 153 233 163 -9 53 25 144 122 157 198 232 158
50 45 49 54 73 83 31 -21 34 111 89 38 42 44 23 60 113 19 -13 34 1 55 15 36 64 101 -16 23 417 226 157 231 164 288 80 177 91 138 121 150 177 163 241 203 200
43 41 51 59 76 87 90 65 76 66 75 59 84 80 66 32 68 37 -9 34 10 -10 35 56 104 73 163 63 36 112 152 109 164 216 271 90 175 115 114 112 207 214 229 248 198
52 41 46 46 89 75 98 93 87 50 93 7 58 69 49 66 38 45 2 -29 -12 11 69 69 109 91 108 95 -7 109 143 108 154 67 160 202 162 161 170 134 186 223 230 219 166
55 49 41 29 138 104 89 96 43 68 91 102 103 96 52 54 26 -11 -15 -58 -48 9 36 56 82 146 102 112 96 -86 79 259 156 165 220 195 128 88 166 183 196 225 241 249 215
37 53 61 39 130 111 83 11 70 38 185 94 115 92 114 80 60 37 -37 -41 -31 5 21 36 86 156 143 159 120 -11 -37 25 36 86 200 220 244 174 139 210 170 297 256 279 251
45 26 63 103 95 93 78 9 92 27 97 82 208 166 102 58 108 152 52 -33 26 67 65 133 248 297 133 127 123 103 -71 -224 30 241 118 69 214 251 105 145 294 239 317 284 241
54 64 69 97 114 122 69 6 80 -21 64 133 204 159 95 85 51 90 65 33 103 120 106 202 152 181 290 182 80 59 86 70 215 -14 180 25 119 83 167 190 118 291 324 317 303
56 70 91 124 140 103 72 59 65 -9 56 132 145 121 133 110 71 75 28 138 148 195 332 216 198 125 270 217 162 139 100 168 179 142 138 48 64 121 423 390 350 256 270 309 287
35 61 67 113 106 43 25 -76 -35 24 148 184 74 114 117 132 135 103 56 142 79 142 272 245 151 259 176 150 161 181 133 169 177 215 247 51 192 303 306 309 323 467 382 445 473
66 72 99 75 89 59 31 -86 -15 76 132 166 121 195 186 123 124 113 88 69 142 118 154 199 152 227 146 158 156 192 95 49 197 222 161 76 425 388 424 357 431 496 545 561 574
116 83 83 83 74 1 -55 -51 58 104 115 144 180 187 238 202 138 97 118 178 144 56 48 49 89 184 279 242 193 125 143 140 191 259 176 134 132 91 339 408 319 568 628 606 564
111 79 151 63 50 -3 -56 14 57 105 104 136 191 197 185 205 181 153 144 108 88 150 73 62 25 145 199 250 287 212 190 123 127 287 345 267 286 286 284 219 207 328 468 629 566
111 42 129 41 21 -31 40 72 55 76 112 118 139 166 202 189 160 165 168 194 143 106 117 46 -3 71 144 198 162 186 178 56 78 254 364 387 369 320 251 275 222 267 357 403 467
117 62 69 89 98 76 20 84 108 94 112 111 132 152 179 183 146 183 208 167 138 88 104 111 72 21 60 105 231 272 269 141 72 24 300 298 313 367 244 230 270 196 295 340 393
107 74 99 115 79 127 88 112 87 88 145 141 162 154 155 154 178 158 197 167 122 138 83 -56 4 19 44 131 110 331 340 317 69 42 94 197 180 236 247 299 336 286 280 318 325
49 96 116 131 134 132 102 127 108 85 131 124 141 137 218 192 144 161 150 197 168 159 72 -11 35 36 42 59 72 159 384 394 427 307 134 117 122 110 73 84 208 256 262 218 254
67 128 128 127 145 160 120 158 135 123 156 125 180 121 219 241 251 192 170 194 161 199 157 67 45 45 28 50 49 165 320 330 382 402 294 181 175 148 104 75 44 56 141 171 183
69 101 162 113 160 206 199 169 146 136 107 154 177 178 163 202 227 184 188 143 172 151 197 143 80 54 72 75 35 142 339 238 192 235 226 266 298 214 199 219 166 100 95 134 157
Wind_Speed
30 37 45 51 54 58 61 63 66 67 69 71 73 71 71 70 67 62 71 64 59 63 68 54 42 53 57 62 57 55 83 95 75 72 64 57 62 56 57 63 54 47 42 46 27
46 54 61 61 62 65 69 73 74 73 73 75 74 73 71 68 66 68 59 65 63 61 69 63 64 56 68 69 70 74 91 90 72 69 65 70 61 60 64 64 66 55 50 29 31
60 68 70 70 72 75 77 78 77 78 79 79 76 72 66 63 72 55 66 68 62 63 71 65 62 61 80 72 76 87 98 86 67 70 71 70 72 66 62 76 67 66 50 36 37
68 72 75 80 83 84 84 82 82 83 81 77 72 69 62 59 84 58 74 74 69 64 63 68 71 79 86 96 82 107 95 92 85 68 69 77 76 72 71 70 61 68 49 46 43
73 77 78 83 87 88 87 85 86 86 81 75 71 61 58 69 70 72 72 72 74 65 61 61 82 82 96 94 96 107 110 89 88 84 81 70 81 72 79 68 67 61 55 56 50
79 79 81 86 89 87 86 88 87 80 79 74 72 44 55 75 58 65 65 73 71 68 73 71 73 82 95 99 95 90 113 96 87 96 87 94 88 80 76 64 64 62 59 66 59
78 79 83 86 85 85 85 88 84 84 69 67 60 38 52 66 61 63 64 65 68 66 78 71 64 71 80 100 99 105 101 111 105 90 100 82 102 110 75 61 68 64 62 73 68
80 80 85 85 84 83 83 83 82 77 53 65 54 45 55 67 68 62 64 71 65 69 71 76 66 72 71 81 82 111 98 130 107 102 83 80 144 92 84 79 70 66 60 72 75
80 84 86 85 82 79 80 75 73 79 56 46 73 46 62 77 81 62 61 76 80 60 61 65 72 81 76 77 96 91 129 124 119 88 93 90 131 85 71 84 88 75 67 67 76
83 86 88 85 80 78 76 65 51 68 71 51 71 52 69 88 83 67 71 85 66 70 57 53 62 88 100 94 102 101 102 109 123 108 85 109 121 81 74 75 82 80 73 71 74
84 86 88 83 79 80 75 64 68 56 67 79 78 57 78 89 63 80 85 82 55 56 55 54 63 88 98 109 109 81 96 107 90 94 108 111 112 96 82 86 83 82 75 75 74
84 86 90 82 74 79 65 75 60 44 56 71 83 62 80 76 64 82 88 68 61 61 50 54 70 60 72 80 101 113 102 88 83 85 101 112 108 93 85 87 85 82 80 77 74
83 88 90 82 65 78 67 75 47 38 52 72 79 70 82 67 65 80 84 73 61 55 56 59 61 58 63 75 88 90 83 87 87 78 94 95 119 103 93 85 85 85 80 75 78
86 91 90 83 72 78 72 61 50 41 63 86 86 65 59 47 60 71 80 64 56 48 47 42 47 59 66 64 62 98 86 82 80 75 99 82 125 117 97 93 88 86 82 76 74
89 93 93 86 70 84 57 50 50 46 93 73 74 52 54 66 40 43 36 63 53 48 38 39 43 47 45 55 56 62 65 79 87 86 76 91 89 105 103 97 91 87 86 78 71
90 92 88 85 72 68 46 42 61 83 85 74 66 72 68 59 53 53 64 56 11 36 37 30 35 30 44 49 47 50 53 70 72 79 102 89 94 92 92 117 102 85 86 81 72
74 92 90 74 88 62 52 52 82 106 66 75 77 68 71 68 58 61 61 68 65 42 39 30 33 31 36 36 36 46 48 69 95 100 102 75 86 70 73 79 96 99 85 80 75
62 82 85 89 74 66 65 82 114 80 75 60 62 67 81 75 58 51 22 62 56 43 28 35 32 41 39 34 51 57 53 57 90 94 94 70 94 76 56 54 58 77 76 70 71
58 75 87 81 78 73 77 119 98 79 63 66 66 76 76 79 63 58 45 55 31 45 36 32 29 35 36 36 34 43 54 46 59 59 75 63 49 56 52 50 49 59 68 72 71
60 66 90 78 75 74 101 103 81 71 62 62 79 69 77 72 77 68 54 37 41 43 34 29 28 31 34 29 24 30 37 41 40 77 76 74 55 40 48 49 52 51 62 66 60
62 72 79 71 64 97 113 91 73 64 67 69 69 65 64 66 65 66 57 33 46 37 30 22 27 27 25 30 22 24 37 37 34 36 71 75 66 48 51 46 40 49 46 54 52
65 79 69 64 101 89 103 81 64 66 64 62 63 61 62 59 60 65 60 46 16 33 31 24 28 26 21 19 31 27 34 48 33 30 31 54 67 47 44 42 38 40 43 42 37
65 65 59 74 107 99 81 84 66 72 70 66 67 62 57 58 62 59 57 39 28 32 35 25 27 27 26 23 34 24 29 32 36 31 27 38 51 40 39 39 35 40 39 40 37
62 74 65 76 75 83 84 88 85 61 63 65 60 60 61 60 53 54 55 47 35 17 37 32 28 25 21 21 33 29 31 22 32 32 26 19 26 30 33 39 40 47 40 36 34
65 69 64 83 82 81 73 79 83 81 60 64 60 69 62 63 58 58 54 48 46 40 18 31 30 26 25 28 25 31 31 27 16 23 23 21 22 25 22 24 34 40 45 43 35
65 65 58 69 68 73 77 79 80 73 65 66 65 63 58 62 56 50 50 54 52 41 36 34 34 33 28 32 24 31 34 27 18 15 14 15 13 21 21 21 26 32 34 34 34
56 53 57 65 67 73 76 73 71 65 55 49 54 57 58 54 40 30 28 29 33 42 45 33 16 35 33 34 27 27 33 25 19 16 23 18 28 25 25 27 26 24 24 28 32
Wind_Direction
36 34 30 24 18 12 7 2 357 351 345 337 329 324 319 314 310 306 296 291 288 279 275 279 273 251 254 252 247 250 253 252 240 250 258 257 254 254 257 252 255 252 258 256 209
35 29 22 18 13 8 3 357 353 349 343 337 330 324 319 315 308 301 306 307 285 280 273 265 263 253 249 248 243 243 248 249 261 257 257 254 255 254 250 249 248 251 252 237 204
28 21 17 13 8 2 357 354 351 347 342 336 331 328 322 319 307 297 309 308 305 290 272 264 259 256 247 248 241 243 239 254 262 257 257 255 253 251 250 246 246 244 245 215 209
23 19 15 9 5 0 357 354 351 347 343 340 335 330 326 319 300 304 308 308 302 295 284 257 254 250 249 243 245 252 253 252 254 260 255 252 251 251 249 248 250 245 235 214 210
21 16 13 9 4 1 358 355 352 348 346 343 339 334 328 315 306 314 306 307 301 293 281 271 252 249 250 250 246 249 251 256 251 256 254 254 249 251 249 249 250 248 232 216 214
17 15 12 7 4 3 360 357 354 352 348 347 341 345 336 314 325 320 314 309 304 290 276 272 268 254 254 251 242 256 251 253 254 249 252 250 250 248 249 248 247 244 233 226 217
18 16 12 9 7 5 3 1 360 355 358 359 1 3 346 333 338 327 319 313 306 295 275 271 270 266 257 249 250 250 254 250 249 249 246 250 249 243 244 246 244 243 236 229 223
18 15 12 11 10 9 7 6 5 7 14 14 15 4 345 350 337 330 326 316 312 296 282 268 268 266 260 256 250 244 247 246 246 245 248 239 241 244 240 241 243 241 237 229 227
19 16 14 13 13 12 9 10 17 19 24 20 12 3 354 345 338 338 335 320 308 305 292 274 265 255 254 256 241 240 242 243 242 244 241 236 243 244 237 237 239 241 236 228 227
20 17 15 14 15 14 13 15 21 28 29 28 14 11 354 340 336 344 335 320 312 305 291 274 263 251 247 244 242 241 240 243 241 236 240 239 243 244 237 235 236 236 236 229 227
21 19 16 16 18 16 18 23 24 21 29 27 15 13 355 337 347 339 333 318 328 309 289 274 262 248 248 245 247 257 247 246 247 239 237 241 243 240 240 237 236 233 234 229 227
22 20 18 19 23 21 27 24 27 34 33 29 18 18 4 360 358 341 339 333 325 305 294 277 262 264 257 252 245 243 248 249 247 241 237 240 242 240 237 235 234 232 231 229 227
23 21 20 21 31 26 32 26 34 58 34 24 20 20 10 11 6 342 337 326 327 310 293 276 263 271 261 251 243 238 242 243 246 243 242 241 241 237 238 238 235 232 229 229 226
25 23 22 24 30 26 33 32 49 59 29 19 20 26 24 26 21 3 338 341 344 319 309 286 279 267 259 251 246 239 241 244 245 240 239 234 240 236 233 234 232 229 225 225 225
27 25 25 31 30 27 30 43 50 48 23 19 23 24 21 33 30 27 332 340 347 318 317 297 285 275 257 254 247 246 245 240 240 243 245 235 242 237 231 233 229 227 224 224 222
29 28 28 30 33 29 36 50 40 36 30 29 28 24 29 32 36 31 359 345 290 335 330 313 311 290 270 262 248 249 251 237 238 243 244 235 236 241 231 229 229 230 227 223 222
31 29 31 32 25 28 46 44 30 35 32 27 26 25 33 31 38 38 344 354 3 329 323 301 325 317 318 257 256 252 244 237 234 236 238 240 235 246 241 239 232 227 227 224 222
35 31 33 33 34 39 47 42 33 34 36 32 27 33 36 34 40 41 11 351 353 341 293 319 310 320 309 277 258 251 241 246 232 234 236 242 236 238 250 245 236 225 223 223 221
40 36 33 32 36 44 43 34 36 36 34 31 33 37 38 37 41 45 56 348 330 335 326 309 311 313 317 293 280 250 239 253 244 237 228 234 249 244 246 242 236 222 220 223 224
39 37 31 32 40 45 39 40 42 41 38 39 35 38 36 35 40 45 48 59 334 331 316 295 291 311 317 300 284 251 248 236 252 229 227 230 237 238 237 242 235 225 223 222 221
40 37 33 34 47 41 37 40 41 41 41 40 38 38 39 39 41 45 46 64 334 322 315 278 302 299 311 342 289 270 242 240 258 248 229 225 234 248 235 236 234 227 226 224 220
40 36 35 41 36 39 38 39 42 40 42 44 44 42 40 41 45 45 46 52 9 318 318 291 298 286 301 304 332 318 257 234 252 244 248 232 236 255 243 241 233 225 222 222 217
38 38 42 42 33 36 41 39 44 40 40 42 41 43 41 43 44 46 44 46 46 329 320 304 314 299 285 287 339 317 306 254 245 258 256 237 236 256 248 241 240 230 228 225 223
38 33 37 40 42 38 37 37 37 43 43 41 43 44 41 46 49 44 43 51 47 43 323 326 332 343 347 320 324 322 337 302 249 248 247 259 240 252 258 251 247 239 240 239 235
39 37 40 31 35 37 40 37 36 37 44 42 45 39 42 43 44 45 47 46 53 55 324 322 321 310 302 308 327 344 341 338 294 271 253 264 259 273 273 267 253 247 241 238 242
37 36 41 36 37 37 36 34 34 36 40 40 39 35 44 42 43 39 44 49 53 47 61 317 309 295 298 310 284 346 348 345 335 285 285 287 292 291 274 260 243 239 240 242 247
42 45 42 36 36 35 34 33 34 35 43 43 38 36 40 39 39 40 54 56 54 51 53 62 309 313 296 299 281 294 321 322 326 304 269 275 271 276 260 256 258 260 253 249 249